| time (UTC) | temp F | wind direction | speed MPH | gust MPH | rain 1hr in | rain 24hr in | rain mn in | humidity % | barometer mb |
| 20260506084426 | 75 | 115 | 0.0 | 0.0 | 0.00 | 0.00 | 0.00 | 93 | 1007.6 |
| 20260506083921 | 75 | 97 | 0.0 | 0.0 | 0.00 | 0.00 | 0.00 | 93 | 1007.5 |
| 20260506083419 | 75 | 109 | 0.0 | 0.0 | 0.00 | 0.00 | 0.00 | 93 | 1007.6 |
| 20260506082916 | 75 | 119 | 0.0 | 0.0 | 0.00 | 0.00 | 0.00 | 93 | 1007.8 |
| 20260506082414 | 75 | 101 | 1.0 | 1.0 | 0.00 | 0.00 | 0.00 | 94 | 1007.7 |
| 20260506081909 | 75 | 109 | 0.0 | 0.0 | 0.00 | 0.00 | 0.00 | 94 | 1007.8 |
| 20260506081408 | 75 | 111 | 0.0 | 0.0 | 0.00 | 0.00 | 0.00 | 94 | 1007.9 |
| 20260506080905 | 75 | 103 | 0.0 | 0.0 | 0.00 | 0.00 | 0.00 | 94 | 1007.6 |
| 20260506080402 | 75 | 132 | 0.0 | 0.0 | 0.00 | 0.00 | 0.00 | 94 | 1007.7 |
| 20260506073345 | 74 | 116 | 0.0 | 0.0 | 0.00 | 0.00 | 0.00 | 97 | 1008.0 |
| 20260506072842 | 74 | 111 | 0.0 | 0.0 | 0.00 | 0.00 | 0.00 | 97 | 1007.8 |
| 20260506072340 | 74 | 111 | 0.0 | 0.0 | 0.00 | 0.00 | 0.00 | 97 | 1007.7 |
| 20260506071837 | 74 | 103 | 0.0 | 0.0 | 0.00 | 0.00 | 0.00 | 97 | 1007.7 |
| 20260506071335 | 74 | 112 | 0.0 | 0.0 | 0.00 | 0.00 | 0.00 | 97 | 1007.8 |
| 20260506070831 | 73 | 112 | 0.0 | 0.0 | 0.00 | 0.00 | 0.00 | 97 | 1007.9 |
| 20260506070329 | 73 | 112 | 0.0 | 0.0 | 0.00 | 0.00 | 0.00 | 97 | 1007.8 |
| 20260506062306 | 73 | 108 | 0.0 | 0.0 | 0.00 | 0.00 | 0.00 | 96 | 1007.9 |
| 20260506061802 | 73 | 108 | 0.0 | 0.0 | 0.00 | 0.00 | 0.00 | 96 | 1008.0 |
| 20260506061259 | 73 | 108 | 0.0 | 0.0 | 0.00 | 0.00 | 0.00 | 96 | 1007.9 |
| 20260506060757 | 73 | 108 | 0.0 | 0.0 | 0.00 | 0.00 | 0.00 | 96 | 1007.8 |
| 20260506060254 | 73 | 110 | 0.0 | 0.0 | 0.00 | 0.00 | 0.00 | 96 | 1008.0 |
| 20260506051226 | 73 | 112 | 0.0 | 0.0 | 0.00 | 0.00 | 0.00 | 96 | 1007.7 |
| 20260506050724 | 73 | 108 | 0.0 | 0.0 | 0.00 | 0.00 | 0.00 | 96 | 1007.8 |
| 20260506050221 | 73 | 113 | 0.0 | 0.0 | 0.00 | 0.00 | 0.00 | 96 | 1007.7 |
| 20260506044712 | 73 | 113 | 0.0 | 0.0 | 0.00 | 0.01 | 0.01 | 96 | 1007.8 |
| 20260506044209 | 73 | 113 | 0.0 | 0.0 | 0.00 | 0.01 | 0.01 | 95 | 1007.8 |
| 20260506043707 | 73 | 113 | 0.0 | 0.0 | 0.00 | 0.01 | 0.01 | 95 | 1007.9 |
| 20260506043204 | 73 | 113 | 0.0 | 0.0 | 0.00 | 0.01 | 0.01 | 95 | 1007.6 |
| 20260506042703 | 73 | 113 | 0.0 | 0.0 | 0.00 | 0.01 | 0.01 | 95 | 1007.5 |
| 20260506042201 | 73 | 114 | 0.0 | 0.0 | 0.00 | 0.01 | 0.01 | 95 | 1007.5 |
| 20260506041659 | 73 | 114 | 0.0 | 0.0 | 0.00 | 0.01 | 0.01 | 95 | 1007.4 |
| 20260506041156 | 73 | 113 | 0.0 | 0.0 | 0.00 | 0.01 | 0.01 | 95 | 1007.2 |
| 20260506040653 | 73 | 113 | 0.0 | 0.0 | 0.00 | 0.01 | 0.01 | 94 | 1007.0 |
| 20260506040150 | 74 | 114 | 0.0 | 0.0 | 0.00 | 0.01 | 0.01 | 94 | 1007.1 |
| 20260506035647 | 74 | 110 | 0.0 | 0.0 | 0.00 | 0.01 | 0.01 | 94 | 1006.9 |
| 20260506035144 | 74 | 104 | 0.0 | 0.0 | 0.07 | 0.01 | 0.01 | 94 | 1006.7 |
| 20260506034640 | 74 | 104 | 0.0 | 0.0 | 0.07 | 0.01 | 0.01 | 94 | 1006.7 |
| 20260506034137 | 74 | 104 | 0.0 | 0.0 | 0.00 | 0.00 | 0.00 | 93 | 1006.8 |
| 20260506033635 | 74 | 101 | 0.0 | 0.0 | 0.00 | 0.00 | 0.00 | 93 | 1006.6 |
| 20260506033131 | 74 | 109 | 0.0 | 0.0 | 0.00 | 0.00 | 0.00 | 93 | 1006.8 |
| 20260506032629 | 74 | 101 | 0.0 | 0.0 | 0.00 | 0.00 | 0.00 | 93 | 1006.5 |
| 20260506032126 | 74 | 112 | 0.0 | 0.0 | 0.00 | 0.00 | 0.00 | 93 | 1006.4 |
| 20260506031623 | 74 | 110 | 0.0 | 0.0 | 0.00 | 0.00 | 0.00 | 94 | 1006.3 |
| 20260506031119 | 74 | 110 | 0.0 | 0.0 | 0.00 | 0.00 | 0.00 | 94 | 1006.6 |
| 20260506030618 | 74 | 113 | 0.0 | 0.0 | 0.00 | 0.00 | 0.00 | 94 | 1006.6 |
| 20260506030115 | 74 | 106 | 0.0 | 0.0 | 0.00 | 0.00 | 0.00 | 94 | 1006.3 |
| 20260506025612 | 74 | 117 | 0.0 | 0.0 | 0.00 | 0.00 | 0.00 | 94 | 1006.4 |
| 20260506025108 | 74 | 114 | 0.0 | 0.0 | 0.00 | 0.00 | 0.00 | 94 | 1006.2 |
| 20260506024605 | 74 | 114 | 0.0 | 0.0 | 0.00 | 0.00 | 0.00 | 94 | 1006.3 |
| 20260506024101 | 75 | 105 | 0.0 | 0.0 | 0.00 | 0.00 | 0.00 | 94 | 1006.3 |
| 20260506023557 | 75 | 99 | 0.0 | 0.0 | 0.00 | 0.00 | 0.00 | 94 | 1006.4 |
| 20260506023055 | 75 | 99 | 0.0 | 0.0 | 0.00 | 0.00 | 0.00 | 94 | 1006.3 |
| 20260506022552 | 75 | 112 | 0.0 | 0.0 | 0.00 | 0.00 | 0.00 | 94 | 1006.1 |
| 20260506022050 | 75 | 112 | 0.0 | 0.0 | 0.00 | 0.00 | 0.00 | 94 | 1006.3 |
| 20260506021547 | 75 | 112 | 0.0 | 0.0 | 0.00 | 0.00 | 0.00 | 93 | 1006.4 |
| 20260506021044 | 75 | 104 | 0.0 | 0.0 | 0.00 | 0.00 | 0.00 | 93 | 1006.5 |
| 20260506020542 | 76 | 100 | 0.0 | 0.0 | 0.00 | 0.00 | 0.00 | 93 | 1006.1 |
| 20260506020039 | 76 | 100 | 0.0 | 0.0 | 0.00 | 0.00 | 0.00 | 92 | 1006.2 |
| 20260506015536 | 76 | 100 | 0.0 | 0.0 | 0.00 | 0.00 | 0.00 | 92 | 1006.0 |
| 20260506015033 | 76 | 98 | 0.0 | 0.0 | 0.00 | 0.00 | 0.00 | 92 | 1006.0 |
| 20260506014531 | 76 | 97 | 0.0 | 0.0 | 0.00 | 0.00 | 0.00 | 92 | 1005.9 |
| 20260506014026 | 76 | 98 | 0.0 | 0.0 | 0.00 | 0.00 | 0.00 | 92 | 1005.8 |
| 20260506013525 | 76 | 107 | 0.0 | 0.0 | 0.00 | 0.00 | 0.00 | 91 | 1005.5 |
| 20260506013021 | 77 | 107 | 0.0 | 0.0 | 0.00 | 0.00 | 0.00 | 91 | 1005.8 |
| 20260506012517 | 77 | 107 | 0.0 | 0.0 | 0.00 | 0.00 | 0.00 | 91 | 1005.6 |
| 20260506012014 | 77 | 106 | 0.0 | 0.0 | 0.00 | 0.00 | 0.00 | 90 | 1005.8 |
| 20260506011512 | 77 | 110 | 0.0 | 0.0 | 0.00 | 0.00 | 0.00 | 90 | 1005.4 |
| 20260506011008 | 78 | 110 | 0.0 | 0.0 | 0.00 | 0.00 | 0.00 | 89 | 1005.3 |
| 20260506010508 | 78 | 110 | 0.0 | 0.0 | 0.00 | 0.00 | 0.00 | 88 | 1005.5 |
| 20260506010003 | 78 | 108 | 0.0 | 0.0 | 0.00 | 0.00 | 0.00 | 88 | 1005.2 |
| 20260506005501 | 79 | 103 | 0.0 | 0.0 | 0.00 | 0.00 | 0.00 | 87 | 1005.1 |
| 20260506004956 | 79 | 102 | 0.0 | 0.0 | 0.00 | 0.00 | 0.00 | 86 | 1005.1 |
| 20260506004454 | 79 | 102 | 0.0 | 0.0 | 0.00 | 0.00 | 0.00 | 86 | 1005.0 |
| 20260506003950 | 79 | 102 | 0.0 | 0.0 | 0.00 | 0.00 | 0.00 | 85 | 1005.0 |
| 20260506003447 | 80 | 102 | 0.0 | 0.0 | 0.00 | 0.00 | 0.00 | 84 | 1004.8 |
| 20260506002943 | 80 | 102 | 0.0 | 0.0 | 0.00 | 0.00 | 0.00 | 83 | 1005.0 |
| 20260506002439 | 80 | 107 | 0.0 | 0.0 | 0.00 | 0.00 | 0.00 | 83 | 1004.8 |
| 20260506001934 | 80 | 107 | 0.0 | 0.0 | 0.00 | 0.00 | 0.00 | 83 | 1004.8 |
| 20260506001432 | 80 | 105 | 0.0 | 0.0 | 0.00 | 0.00 | 0.00 | 82 | 1004.8 |
| 20260506000929 | 80 | 105 | 0.0 | 0.0 | 0.00 | 0.00 | 0.00 | 82 | 1004.8 |
| 20260506000427 | 80 | 114 | 0.0 | 0.0 | 0.00 | 0.00 | 0.00 | 81 | 1004.9 |
| 20260505235923 | 81 | 106 | 0.0 | 0.0 | 0.00 | 0.00 | 0.00 | 82 | 1005.0 |
| 20260505235422 | 81 | 95 | 0.0 | 0.0 | 0.00 | 0.00 | 0.00 | 81 | 1004.8 |
| 20260505234918 | 81 | 120 | 0.0 | 0.0 | 0.00 | 0.00 | 0.00 | 81 | 1004.9 |
| 20260505234416 | 81 | 99 | 0.0 | 0.0 | 0.00 | 0.00 | 0.00 | 80 | 1004.9 |
| 20260505233912 | 81 | 99 | 0.0 | 0.0 | 0.00 | 0.00 | 0.00 | 79 | 1004.6 |
| 20260505233410 | 81 | 101 | 0.0 | 0.0 | 0.00 | 0.00 | 0.00 | 79 | 1004.7 |
| 20260505232907 | 82 | 91 | 0.0 | 0.0 | 0.00 | 0.00 | 0.00 | 78 | 1004.7 |
| 20260505232405 | 82 | 109 | 0.0 | 0.0 | 0.00 | 0.00 | 0.00 | 78 | 1004.5 |
| 20260505231901 | 82 | 119 | 0.0 | 0.0 | 0.00 | 0.00 | 0.00 | 76 | 1004.4 |
| 20260505231359 | 82 | 109 | 0.0 | 0.0 | 0.00 | 0.00 | 0.00 | 76 | 1004.4 |
| 20260505230857 | 82 | 90 | 1.0 | 1.0 | 0.00 | 0.00 | 0.00 | 75 | 1004.5 |
| 20260505230354 | 82 | 126 | 0.0 | 1.0 | 0.00 | 0.00 | 0.00 | 73 | 1004.5 |
| 20260505225850 | 83 | 122 | 0.0 | 0.0 | 0.00 | 0.00 | 0.00 | 76 | 1004.7 |
| 20260505225348 | 83 | 138 | 2.0 | 2.0 | 0.00 | 0.00 | 0.00 | 73 | 1004.6 |
| 20260505224843 | 83 | 149 | 0.0 | 1.0 | 0.00 | 0.00 | 0.00 | 73 | 1004.6 |
| 20260505224341 | 84 | 108 | 1.0 | 1.0 | 0.00 | 0.00 | 0.00 | 73 | 1004.5 |
| 20260505223838 | 84 | 315 | 2.0 | 2.0 | 0.00 | 0.00 | 0.00 | 72 | 1004.4 |
| 20260505223335 | 84 | 105 | 0.0 | 0.0 | 0.00 | 0.00 | 0.00 | 72 | 1004.3 |
| 20260505222830 | 83 | 133 | 0.0 | 0.0 | 0.00 | 0.00 | 0.00 | 72 | 1004.3 |
| 20260505222327 | 83 | 89 | 0.0 | 1.0 | 0.00 | 0.00 | 0.00 | 73 | 1004.5 |
| 20260505221824 | 83 | 117 | 0.0 | 0.0 | 0.00 | 0.00 | 0.00 | 73 | 1004.5 |
| 20260505221321 | 83 | 115 | 0.0 | 0.0 | 0.00 | 0.00 | 0.00 | 73 | 1004.7 |
| 20260505220818 | 84 | 126 | 1.0 | 1.0 | 0.00 | 0.00 | 0.00 | 74 | 1004.7 |
| 20260505220315 | 84 | 128 | 1.0 | 1.0 | 0.00 | 0.00 | 0.00 | 75 | 1004.7 |
| 20260505215813 | 83 | 92 | 0.0 | 1.0 | 0.00 | 0.00 | 0.00 | 76 | 1004.9 |
| 20260505215310 | 84 | 107 | 1.0 | 1.0 | 0.00 | 0.00 | 0.00 | 75 | 1005.1 |
| 20260505214808 | 84 | 123 | 0.0 | 0.0 | 0.00 | 0.00 | 0.00 | 72 | 1004.9 |
| 20260505214306 | 85 | 102 | 0.0 | 0.0 | 0.00 | 0.00 | 0.00 | 70 | 1004.9 |
| 20260505213802 | 85 | 146 | 1.0 | 1.0 | 0.00 | 0.00 | 0.00 | 71 | 1005.0 |
| 20260505213300 | 85 | 150 | 1.0 | 2.0 | 0.00 | 0.00 | 0.00 | 70 | 1005.0 |
| 20260505212755 | 85 | 163 | 0.0 | 1.0 | 0.00 | 0.00 | 0.00 | 70 | 1005.1 |
| 20260505212253 | 84 | 122 | 0.0 | 0.0 | 0.00 | 0.00 | 0.00 | 70 | 1005.0 |
| 20260505211749 | 84 | 117 | 0.0 | 0.0 | 0.00 | 0.00 | 0.00 | 70 | 1005.1 |
| 20260505211247 | 84 | 136 | 2.0 | 2.0 | 0.00 | 0.00 | 0.00 | 71 | 1005.2 |
| 20260505210743 | 84 | 111 | 0.0 | 0.0 | 0.00 | 0.00 | 0.00 | 71 | 1005.0 |
| 20260505210240 | 84 | 91 | 0.0 | 0.0 | 0.00 | 0.00 | 0.00 | 73 | 1005.3 |
| 20260505205738 | 83 | 130 | 0.0 | 1.0 | 0.00 | 0.00 | 0.00 | 73 | 1005.2 |
| 20260505205236 | 84 | 115 | 0.0 | 1.0 | 0.00 | 0.00 | 0.00 | 73 | 1005.3 |
| 20260505204732 | 84 | 170 | 1.0 | 1.0 | 0.00 | 0.00 | 0.00 | 72 | 1005.2 |
| 20260505204230 | 84 | 120 | 0.0 | 1.0 | 0.00 | 0.00 | 0.00 | 72 | 1005.5 |
| 20260505203727 | 83 | 129 | 1.0 | 1.0 | 0.00 | 0.00 | 0.00 | 71 | 1005.4 |
| 20260505203224 | 83 | 134 | 1.0 | 1.0 | 0.00 | 0.00 | 0.00 | 73 | 1005.7 |
| 20260505202719 | 82 | 143 | 0.0 | 0.0 | 0.00 | 0.00 | 0.00 | 73 | 1005.6 |
| 20260505202216 | 82 | 103 | 0.0 | 0.0 | 0.00 | 0.00 | 0.00 | 73 | 1005.8 |
| 20260505201712 | 82 | 195 | 2.0 | 2.0 | 0.00 | 0.00 | 0.00 | 74 | 1005.7 |
| 20260505201210 | 82 | 107 | 0.0 | 1.0 | 0.00 | 0.00 | 0.00 | 75 | 1005.9 |
| 20260505200708 | 82 | 114 | 0.0 | 0.0 | 0.00 | 0.00 | 0.00 | 73 | 1005.8 |
| 20260505200205 | 82 | 111 | 1.0 | 2.0 | 0.00 | 0.00 | 0.00 | 73 | 1006.0 |
| 20260505195701 | 82 | 135 | 1.0 | 2.0 | 0.00 | 0.00 | 0.00 | 73 | 1006.1 |
| 20260505195158 | 82 | 188 | 1.0 | 2.0 | 0.00 | 0.00 | 0.00 | 72 | 1006.1 |
| 20260505194655 | 83 | 192 | 1.0 | 1.0 | 0.00 | 0.00 | 0.00 | 73 | 1006.1 |
| 20260505194151 | 83 | 161 | 0.0 | 1.0 | 0.00 | 0.00 | 0.00 | 72 | 1005.9 |
| 20260505193648 | 82 | 157 | 0.0 | 0.0 | 0.00 | 0.00 | 0.00 | 74 | 1006.1 |
| 20260505193145 | 82 | 88 | 1.0 | 1.0 | 0.00 | 0.00 | 0.00 | 74 | 1005.9 |
| 20260505192644 | 82 | 148 | 0.0 | 0.0 | 0.00 | 0.00 | 0.00 | 73 | 1006.1 |
| 20260505192141 | 82 | 120 | 0.0 | 0.0 | 0.00 | 0.00 | 0.00 | 75 | 1006.2 |
| 20260505191639 | 81 | 97 | 0.0 | 0.0 | 0.00 | 0.00 | 0.00 | 74 | 1006.3 |
| 20260505191137 | 82 | 112 | 1.0 | 1.0 | 0.00 | 0.00 | 0.00 | 75 | 1006.4 |
| 20260505190633 | 82 | 179 | 1.0 | 2.0 | 0.00 | 0.00 | 0.00 | 73 | 1006.2 |
| 20260505190127 | 82 | 114 | 1.0 | 1.0 | 0.00 | 0.00 | 0.00 | 74 | 1006.3 |
| 20260505185624 | 82 | 104 | 0.0 | 1.0 | 0.00 | 0.00 | 0.00 | 75 | 1006.5 |
| 20260505185121 | 81 | 127 | 1.0 | 1.0 | 0.00 | 0.00 | 0.00 | 75 | 1006.3 |
| 20260505184617 | 81 | 127 | 1.0 | 2.0 | 0.00 | 0.00 | 0.00 | 76 | 1006.4 |
| 20260505184114 | 80 | 116 | 1.0 | 1.0 | 0.00 | 0.00 | 0.00 | 77 | 1006.2 |
| 20260505183611 | 80 | 95 | 0.0 | 0.0 | 0.00 | 0.00 | 0.00 | 77 | 1006.4 |
| 20260505183109 | 80 | 72 | 2.0 | 3.0 | 0.00 | 0.00 | 0.00 | 78 | 1006.6 |
| 20260505182604 | 80 | 144 | 1.0 | 1.0 | 0.00 | 0.00 | 0.00 | 77 | 1006.5 |
| 20260505182102 | 79 | 115 | 0.0 | 0.0 | 0.00 | 0.00 | 0.00 | 78 | 1006.6 |
| 20260505181558 | 79 | 166 | 1.0 | 1.0 | 0.00 | 0.00 | 0.00 | 77 | 1006.7 |
| 20260505181056 | 79 | 214 | 2.0 | 3.0 | 0.00 | 0.00 | 0.00 | 78 | 1006.7 |
| 20260505180551 | 80 | 116 | 0.0 | 0.0 | 0.00 | 0.00 | 0.00 | 78 | 1006.7 |
| 20260505180049 | 79 | 108 | 0.0 | 1.0 | 0.00 | 0.00 | 0.00 | 79 | 1006.7 |
| 20260505175544 | 79 | 153 | 0.0 | 0.0 | 0.00 | 0.00 | 0.00 | 79 | 1006.7 |
| 20260505175041 | 79 | 172 | 1.0 | 2.0 | 0.00 | 0.00 | 0.00 | 78 | 1006.6 |
| 20260505174538 | 79 | 152 | 0.0 | 0.0 | 0.00 | 0.00 | 0.00 | 79 | 1006.6 |
| 20260505174034 | 79 | 180 | 1.0 | 2.0 | 0.00 | 0.00 | 0.00 | 79 | 1006.9 |
| 20260505173531 | 78 | 150 | 1.0 | 2.0 | 0.00 | 0.00 | 0.00 | 79 | 1006.9 |
| 20260505173028 | 78 | 237 | 2.0 | 2.0 | 0.00 | 0.00 | 0.00 | 80 | 1006.7 |
| 20260505172526 | 78 | 162 | 0.0 | 1.0 | 0.00 | 0.00 | 0.00 | 80 | 1006.8 |
| 20260505172021 | 78 | 97 | 2.0 | 3.0 | 0.00 | 0.00 | 0.00 | 80 | 1006.8 |
| 20260505171517 | 77 | 127 | 0.0 | 0.0 | 0.00 | 0.00 | 0.00 | 82 | 1006.9 |
| 20260505171014 | 77 | 136 | 1.0 | 1.0 | 0.00 | 0.00 | 0.00 | 82 | 1007.1 |
| 20260505170510 | 77 | 130 | 1.0 | 1.0 | 0.00 | 0.00 | 0.00 | 82 | 1007.2 |
| 20260505170007 | 77 | 69 | 0.0 | 0.0 | 0.00 | 0.00 | 0.00 | 82 | 1007.2 |
| 20260505165502 | 77 | 128 | 0.0 | 0.0 | 0.00 | 0.00 | 0.00 | 82 | 1007.1 |
| 20260505164958 | 76 | 119 | 0.0 | 1.0 | 0.00 | 0.00 | 0.00 | 83 | 1007.1 |
| 20260505164454 | 77 | 146 | 0.0 | 1.0 | 0.00 | 0.00 | 0.00 | 83 | 1007.3 |
| 20260505163952 | 76 | 119 | 0.0 | 0.0 | 0.00 | 0.00 | 0.00 | 83 | 1007.1 |
| 20260505163451 | 76 | 143 | 1.0 | 1.0 | 0.00 | 0.00 | 0.00 | 83 | 1007.3 |
| 20260505162950 | 76 | 92 | 0.0 | 0.0 | 0.00 | 0.00 | 0.00 | 83 | 1007.1 |
| 20260505162445 | 76 | 109 | 0.0 | 0.0 | 0.00 | 0.00 | 0.00 | 84 | 1007.3 |
| 20260505161942 | 76 | 107 | 0.0 | 0.0 | 0.00 | 0.00 | 0.00 | 84 | 1007.1 |
| 20260505161439 | 76 | 115 | 0.0 | 0.0 | 0.00 | 0.00 | 0.00 | 84 | 1007.2 |
| 20260505160936 | 75 | 114 | 1.0 | 1.0 | 0.00 | 0.00 | 0.00 | 83 | 1007.2 |
| 20260505160435 | 75 | 129 | 0.0 | 0.0 | 0.00 | 0.00 | 0.00 | 84 | 1006.9 |
| 20260505152911 | 73 | 106 | 0.0 | 0.0 | 0.00 | 0.00 | 0.00 | 86 | 1007.2 |
| 20260505152408 | 73 | 97 | 0.0 | 1.0 | 0.00 | 0.00 | 0.00 | 87 | 1007.2 |
| 20260505151908 | 73 | 111 | 0.0 | 1.0 | 0.00 | 0.00 | 0.00 | 86 | 1006.9 |
| 20260505151404 | 73 | 102 | 0.0 | 1.0 | 0.00 | 0.00 | 0.00 | 86 | 1007.0 |
| 20260505150901 | 73 | 142 | 1.0 | 1.0 | 0.00 | 0.00 | 0.00 | 86 | 1006.8 |
| 20260505150358 | 73 | 109 | 0.0 | 0.0 | 0.00 | 0.00 | 0.00 | 86 | 1006.9 |
| 20260505140323 | 72 | 117 | 0.0 | 0.0 | 0.00 | 0.00 | 0.00 | 86 | 1007.2 |
| 20260505130246 | 71 | 118 | 0.0 | 0.0 | 0.00 | 0.00 | 0.00 | 89 | 1007.0 |
| 20260505124737 | 71 | 127 | 0.0 | 1.0 | 0.00 | 0.00 | 0.00 | 89 | 1006.8 |
| 20260505124234 | 71 | 119 | 0.0 | 0.0 | 0.00 | 0.00 | 0.00 | 89 | 1006.8 |
| 20260505123729 | 71 | 161 | 0.0 | 0.0 | 0.00 | 0.00 | 0.00 | 89 | 1006.5 |
| 20260505123226 | 71 | 140 | 0.0 | 0.0 | 0.00 | 0.00 | 0.00 | 89 | 1006.8 |
| 20260505122723 | 71 | 130 | 1.0 | 1.0 | 0.00 | 0.00 | 0.00 | 89 | 1006.6 |
| 20260505122220 | 70 | 120 | 1.0 | 1.0 | 0.00 | 0.00 | 0.00 | 89 | 1006.7 |
| 20260505121716 | 70 | 122 | 0.0 | 0.0 | 0.00 | 0.00 | 0.00 | 89 | 1006.7 |
| 20260505121213 | 70 | 117 | 0.0 | 0.0 | 0.00 | 0.00 | 0.00 | 89 | 1006.5 |
| 20260505120710 | 70 | 111 | 0.0 | 1.0 | 0.00 | 0.00 | 0.00 | 89 | 1006.5 |
| 20260505120205 | 70 | 131 | 1.0 | 1.0 | 0.00 | 0.00 | 0.00 | 89 | 1006.3 |
| 20260505115659 | 70 | 156 | 1.0 | 1.0 | 0.00 | 0.00 | 0.00 | 89 | 1006.1 |
| 20260505115157 | 70 | 117 | 0.0 | 0.0 | 0.00 | 0.00 | 0.00 | 89 | 1006.1 |
| 20260505114654 | 70 | 139 | 1.0 | 1.0 | 0.00 | 0.00 | 0.00 | 89 | 1006.0 |
| 20260505114150 | 70 | 104 | 0.0 | 0.0 | 0.00 | 0.00 | 0.00 | 89 | 1006.1 |
| 20260505113647 | 70 | 114 | 0.0 | 0.0 | 0.00 | 0.00 | 0.00 | 89 | 1006.3 |
| 20260505113143 | 70 | 118 | 0.0 | 0.0 | 0.00 | 0.00 | 0.00 | 89 | 1006.3 |
| 20260505112640 | 70 | 132 | 0.0 | 1.0 | 0.00 | 0.00 | 0.00 | 89 | 1006.2 |
| 20260505112138 | 70 | 138 | 0.0 | 1.0 | 0.00 | 0.00 | 0.00 | 89 | 1006.3 |
| 20260505111637 | 70 | 121 | 0.0 | 0.0 | 0.00 | 0.00 | 0.00 | 89 | 1006.4 |
| 20260505111133 | 70 | 122 | 0.0 | 0.0 | 0.00 | 0.00 | 0.00 | 89 | 1006.3 |
| 20260505110630 | 70 | 143 | 1.0 | 1.0 | 0.00 | 0.00 | 0.00 | 89 | 1006.4 |
| 20260505110127 | 70 | 132 | 0.0 | 1.0 | 0.00 | 0.00 | 0.00 | 89 | 1006.5 |
| 20260505102103 | 69 | 123 | 2.0 | 2.0 | 0.00 | 0.00 | 0.00 | 89 | 1006.0 |
| 20260505101601 | 69 | 132 | 0.0 | 1.0 | 0.00 | 0.00 | 0.00 | 89 | 1005.9 |
| 20260505101057 | 69 | 120 | 0.0 | 0.0 | 0.00 | 0.00 | 0.00 | 88 | 1006.4 |
| 20260505100554 | 69 | 129 | 1.0 | 1.0 | 0.00 | 0.00 | 0.00 | 88 | 1006.1 |
| 20260505100051 | 69 | 140 | 0.0 | 0.0 | 0.00 | 0.00 | 0.00 | 89 | 1006.3 |
| 20260505095547 | 69 | 106 | 0.0 | 0.0 | 0.00 | 0.00 | 0.00 | 89 | 1006.2 |
| 20260505095043 | 69 | 124 | 0.0 | 0.0 | 0.00 | 0.00 | 0.00 | 88 | 1006.2 |
| 20260505094540 | 69 | 118 | 0.0 | 0.0 | 0.00 | 0.00 | 0.00 | 88 | 1005.8 |
| 20260505094036 | 69 | 112 | 0.0 | 0.0 | 0.00 | 0.00 | 0.00 | 88 | 1006.1 |
| 20260505093533 | 69 | 142 | 0.0 | 1.0 | 0.00 | 0.00 | 0.00 | 88 | 1006.0 |
| 20260505093030 | 69 | 147 | 0.0 | 0.0 | 0.00 | 0.00 | 0.00 | 89 | 1006.2 |
| 20260505092527 | 69 | 121 | 0.0 | 1.0 | 0.00 | 0.00 | 0.00 | 89 | 1006.2 |
| 20260505092026 | 69 | 120 | 0.0 | 0.0 | 0.00 | 0.00 | 0.00 | 89 | 1006.3 |
| 20260505091522 | 69 | 134 | 1.0 | 1.0 | 0.00 | 0.00 | 0.00 | 89 | 1006.4 |
| 20260505091020 | 69 | 134 | 0.0 | 1.0 | 0.00 | 0.00 | 0.00 | 89 | 1006.7 |
| 20260505090518 | 68 | 157 | 0.0 | 1.0 | 0.00 | 0.00 | 0.00 | 89 | 1006.6 |
| 20260505090016 | 68 | 128 | 0.0 | 0.0 | 0.00 | 0.00 | 0.00 | 89 | 1006.7 |
| 20260505085514 | 68 | 122 | 0.0 | 0.0 | 0.00 | 0.00 | 0.00 | 89 | 1006.6 |
| 20260505085012 | 68 | 129 | 0.0 | 0.0 | 0.00 | 0.00 | 0.00 | 89 | 1006.8 |